STARLINK-1060

Last updated on Thu Dec 12 2019 00:02:04 GMT+0000 (Coordinated Universal Time)

1 44765U 19074BE 19345.25001157 -.00013819 00000-0 -93996-4 0 9994 2 44765 53.0094 23.1929 0001816 28.6981 284.5859 15.73241075 4689
UTC large
Height (km)
Speed (km/s)
/
Latitude / Longitude
Inclination (degrees)
Orbital Period (minutes)
Azimuth
Elevation
Range (km)
Doppler Factor

Next 0 passes for location: London (51.5072 / 0.1276)

Sorry there are no passes over London.